Location: Alladorf
(49.9620°N, 11.3790°E)
Time: 21:30:35
(UTC+00:00)

CZ-4C R/B - Pass Details

Date: 29 November 2020
Orbit: 620 x 1382 km, 63.4° (Epoch: 24 January)

Event Time Altitude Azimuth Distance (km) Brightness Sun altitude
Exits shadow 05:11:09 - 231° (SW) 2,511 4.3 -15.0°
Reaches altitude 10° 05:11:54 10° 232° (SW) 2,226 4.1 -14.9°
Maximum altitude 05:16:58 71° 317° (NW) 874 2.1 -14.2°
Drops below altitude 10° 05:23:11 10° 41° (NE) 2,709 5.1 -13.2°
Sets 05:26:03 0° 44° (NE) 3,788 5.9 -12.8°
